Temperature
19 20 20 20 23 23 23 22 22 20 19 18 17 17 18 19 19 18 14 13 12 11 10 9 9 9 9 9 9 9 9 8 8 7 7 7 7 6 6 6 5 5 5 5 5 5 5 5 5
19 20 20 22 23 23 23 22 21 20 18 15 14 15 17 18 14 14 15 14 12 11 10 9 9 9 9 9 9 9 9 8 8 8 7 7 7 6 6 6 5 5 5 5 5 5 4 4 5
20 20 21 23 23 23 23 22 21 17 14 15 16 15 17 17 14 14 15 14 12 10 10 9 9 9 9 9 9 9 9 9 8 8 8 7 7 6 6 6 5 5 5 5 5 5 5 5 5
20 20 22 24 23 23 23 22 19 16 14 14 16 17 15 15 14 15 15 14 12 11 9 9 9 9 9 9 9 9 9 9 9 8 8 7 7 7 6 6 6 5 5 5 5 5 5 5 5
20 22 23 23 23 22 21 19 17 18 17 16 15 18 17 15 16 16 15 14 12 11 9 9 9 9 9 9 9 9 9 9 9 9 8 8 7 7 6 6 6 5 5 5 5 5 5 5 6
21 23 23 22 23 22 21 17 17 18 18 16 15 17 17 16 16 15 15 13 12 11 10 9 9 9 9 9 9 9 9 9 9 9 8 8 7 7 6 6 5 5 5 5 5 5 6 6 6
22 23 22 22 22 23 21 17 17 18 18 16 15 17 17 15 15 15 14 12 11 10 10 9 9 9 9 9 9 9 9 9 8 8 8 7 7 7 6 6 5 5 5 5 5 5 5 5 5
20 23 22 22 22 22 20 16 16 16 18 16 14 17 18 14 15 14 13 12 11 10 10 9 9 8 9 9 9 9 9 8 8 8 8 7 7 6 6 5 5 5 5 5 5 5 5 5 5
19 22 22 22 22 23 19 16 16 14 15 13 13 15 15 15 15 14 13 12 11 11 10 10 9 9 9 8 8 8 8 8 8 8 7 7 6 6 6 6 5 5 5 5 5 5 5 5 5
20 21 22 22 22 21 18 17 17 14 15 15 14 13 15 15 15 14 14 14 13 13 11 10 10 9 9 8 8 8 8 8 7 7 7 7 6 6 6 5 5 5 5 5 5 5 4 4 4
20 21 21 19 17 17 17 16 15 16 18 18 17 16 15 15 14 14 15 15 15 13 12 11 10 10 9 8 8 8 8 8 7 7 7 6 6 6 6 5 5 5 5 4 4 4 4 4 4
19 19 17 17 15 15 16 16 15 15 18 18 17 16 16 15 15 15 15 15 14 13 13 12 11 10 9 8 8 8 8 7 7 7 7 6 6 6 6 5 5 5 4 4 4 4 3 3 3
19 18 15 15 14 14 14 15 16 16 16 16 15 15 16 16 16 16 15 14 14 14 13 12 11 11 10 9 8 8 8 8 7 7 6 6 6 6 5 5 5 4 4 4 3 3 3 3 2
17 16 16 15 14 14 14 16 15 16 17 16 15 15 15 16 16 15 15 15 14 14 13 13 12 11 10 9 9 8 8 8 7 7 6 6 6 6 5 5 5 4 4 3 3 3 2 2 2
15 17 19 16 15 15 14 17 17 18 16 16 16 16 15 16 16 16 16 16 15 15 14 13 12 11 10 10 9 8 8 7 7 7 6 6 6 6 5 5 4 4 4 3 3 2 2 2 2
17 19 20 19 16 14 15 20 22 20 17 17 17 17 16 16 17 17 16 16 15 15 14 14 13 12 11 10 9 8 8 8 7 7 7 6 6 5 5 5 4 4 3 3 2 2 2 1 1
20 21 21 20 17 16 16 19 22 20 17 17 18 18 17 16 17 18 17 17 16 15 15 14 13 12 12 11 10 9 8 8 7 7 7 6 6 6 5 5 4 4 3 3 2 2 1 1 0
20 20 20 20 19 16 16 18 21 20 19 18 18 18 18 17 17 18 18 17 17 16 15 14 13 13 12 11 10 9 9 8 8 7 7 7 6 6 5 5 4 4 3 3 2 1 1 1 -0
19 19 19 20 19 15 17 19 20 21 20 19 18 18 18 17 17 16 16 17 17 16 15 15 14 13 12 11 11 10 10 10 9 8 8 7 7 6 5 5 4 4 3 3 2 1 1 0 -1
17 18 19 20 16 15 17 18 20 20 19 19 18 18 17 17 16 15 15 16 17 17 16 16 15 14 13 13 13 12 11 10 10 9 9 8 7 6 5 5 4 4 3 2 2 1 1 -0 -1
18 18 19 18 18 16 15 19 21 22 20 18 17 16 16 15 15 15 14 16 17 17 17 17 16 15 15 14 13 11 10 10 10 10 10 9 8 7 6 5 4 4 3 3 2 1 0 -0 -2
18 17 16 15 16 18 16 18 21 22 21 21 20 19 18 16 15 15 15 16 17 18 17 17 16 16 15 14 13 13 13 13 13 12 11 10 9 8 7 6 5 4 3 3 2 1 0 -0 -1
17 15 15 15 16 16 17 17 20 22 22 22 21 20 18 17 16 16 17 17 18 18 18 17 17 16 16 15 15 14 13 14 12 11 11 11 10 9 8 7 5 4 4 3 2 1 1 -0 -1
15 15 14 14 16 17 17 17 20 23 22 21 21 19 18 17 16 17 17 18 18 18 18 17 17 17 16 16 15 15 15 14 13 12 12 11 11 10 9 7 6 5 4 3 2 1 1 -0 -1
15 17 19 19 19 19 15 15 19 22 21 19 18 18 17 17 16 16 16 17 17 18 18 18 18 17 17 16 16 16 16 15 14 13 12 12 11 11 11 9 7 5 4 3 2 1 1 -0 -1
16 17 18 18 19 19 16 16 20 21 19 18 17 17 17 17 16 15 16 16 17 17 17 17 17 17 17 17 16 16 16 15 14 14 12 12 12 11 10 9 7 6 4 3 2 1 1 -0 -1
16 16 16 17 17 16 17 17 18 20 21 20 19 18 17 16 15 15 15 15 16 16 17 17 17 17 17 16 16 16 15 15 15 14 13 12 11 11 9 8 7 5 4 3 2 1 1 -0 -1
14 15 15 16 16 17 18 17 19 21 21 21 19 17 16 15 14 14 14 14 15 15 16 16 16 16 16 15 15 15 15 15 14 14 13 12 11 10 8 7 6 5 3 2 2 1 0 -0 -1
14 14 15 16 16 16 17 18 19 20 20 18 17 16 15 14 13 13 13 14 14 14 15 15 15 15 15 14 14 14 14 14 13 13 13 12 10 9 7 6 5 4 3 2 1 1 0 -0 -1
15 16 16 16 17 15 16 18 20 19 18 16 16 15 14 12 12 12 13 13 13 13 14 14 14 14 14 14 14 14 13 13 13 13 12 11 9 8 7 5 4 3 2 1 1 0 -0 -1 -1
Wind_Speed
2 1 3 3 4 5 4 1 1 4 5 4 5 4 4 4 3 1 5 12 14 19 18 18 16 14 13 11 10 10 9 10 10 11 11 12 13 13 14 15 16 16 17 18 19 19 19 20 20
1 2 3 4 6 6 3 1 4 4 3 6 5 5 5 5 0 4 8 13 17 18 17 17 17 15 13 12 11 10 9 9 9 10 10 11 12 12 13 14 14 15 16 16 17 17 18 18 19
1 2 3 4 7 7 5 1 2 4 5 7 7 5 5 3 5 6 10 18 18 17 17 17 18 16 14 13 11 10 9 9 9 9 9 10 11 11 12 12 13 14 14 15 15 16 17 17 18
2 3 3 7 9 5 4 0 4 7 7 7 6 5 5 2 3 6 15 20 18 18 17 18 18 17 15 13 12 11 10 9 9 9 9 9 10 10 10 11 11 12 12 13 14 15 15 16 17
2 3 7 10 10 4 2 2 6 9 7 9 9 6 5 6 5 10 17 20 18 18 17 17 19 17 16 14 13 11 10 10 9 9 8 8 9 9 9 9 10 10 11 11 12 13 14 15 16
2 4 9 11 12 6 4 5 6 9 8 7 8 7 4 7 10 13 17 18 18 18 17 15 19 18 16 15 14 13 11 10 10 9 8 8 8 8 8 8 8 8 9 10 11 12 12 13 14
3 5 11 13 13 12 5 7 7 9 11 10 6 6 5 9 11 14 17 18 17 17 17 16 18 18 17 16 15 14 12 11 11 10 9 8 7 7 7 7 7 7 7 8 9 10 11 12 13
2 6 13 14 15 16 4 8 5 9 8 5 7 8 4 9 15 15 16 16 16 16 17 17 17 17 17 17 16 15 14 13 12 11 10 9 8 7 6 5 6 6 6 7 8 9 9 10 11
2 8 14 15 14 13 5 8 5 5 7 6 8 6 3 12 17 16 16 16 16 17 17 18 18 17 16 16 16 16 15 14 13 12 11 9 7 6 5 5 5 5 5 5 6 7 7 6 8
4 10 14 9 9 8 5 8 6 7 10 10 10 11 7 14 18 20 21 22 22 22 21 20 20 19 17 15 15 14 14 14 14 12 12 9 7 6 6 6 4 4 4 3 4 4 4 5 6
5 9 8 5 5 5 5 6 6 9 13 14 14 16 16 17 20 21 23 23 24 22 21 20 21 20 19 16 15 13 13 13 14 14 13 10 9 8 7 6 6 5 4 2 1 1 3 4 5
5 6 5 5 3 4 6 5 8 14 15 7 10 10 18 20 23 24 24 23 22 22 23 21 23 21 21 18 16 15 14 13 13 14 15 12 10 9 9 8 7 6 5 3 2 1 2 3 4
6 5 4 6 6 7 8 12 10 18 18 12 7 11 18 21 23 23 22 21 21 22 23 23 23 23 21 19 16 16 16 15 16 15 16 15 12 11 10 9 8 8 6 6 4 3 2 3 4
3 5 7 6 7 5 9 12 9 19 14 15 17 17 19 21 23 22 22 23 23 24 23 23 23 25 23 20 18 17 17 16 16 16 17 18 15 13 11 10 10 9 8 7 5 4 4 4 5
2 6 9 7 6 4 6 13 13 17 9 14 18 20 21 22 22 24 24 24 25 24 23 24 23 25 24 22 21 18 17 17 17 17 19 20 18 15 14 11 11 10 9 8 7 6 5 5 6
4 5 6 3 5 4 5 16 14 9 12 17 18 19 20 22 23 24 24 23 23 22 23 23 20 23 24 22 21 19 18 18 18 18 18 21 21 18 16 13 12 12 11 9 8 7 6 6 6
4 6 10 7 5 4 7 20 23 11 13 19 20 20 20 21 23 24 24 24 23 23 23 23 24 24 23 23 21 20 19 19 19 19 19 21 22 21 18 15 13 14 12 10 9 7 7 7 7
8 11 13 13 4 7 13 23 29 22 18 23 23 22 21 22 23 21 22 23 22 21 22 22 23 23 22 19 17 16 17 18 20 20 20 22 22 23 21 16 16 15 12 10 9 9 8 7 7
10 12 17 18 7 6 17 25 30 27 20 22 22 21 21 22 20 17 18 20 21 21 22 23 23 23 20 17 18 18 18 16 16 20 23 24 23 24 22 17 17 16 13 12 12 10 10 9 7
8 12 16 13 2 6 16 26 27 21 16 15 17 18 17 18 16 15 16 18 21 23 23 24 24 24 24 20 18 16 16 14 16 18 22 25 26 25 23 22 17 17 13 14 14 12 9 8 8
10 11 12 12 10 7 10 14 12 10 7 9 10 11 12 13 13 12 14 17 19 22 24 22 25 24 24 23 16 13 13 12 15 18 18 24 27 27 25 25 21 18 16 14 16 15 15 11 9
10 5 8 8 9 7 6 9 13 10 11 10 12 12 11 9 8 9 11 14 18 20 19 21 22 23 23 22 21 22 19 19 19 17 17 20 26 27 28 26 24 20 17 16 16 16 14 13 11
5 2 4 6 6 8 5 6 10 8 10 16 16 16 15 12 10 8 8 12 14 16 17 18 20 21 22 23 24 24 23 21 16 16 19 20 21 26 28 27 24 21 17 18 17 16 16 14 13
2 3 3 2 3 5 2 4 8 5 8 13 15 16 17 15 14 11 8 8 10 12 15 16 19 21 22 23 25 26 27 24 21 20 19 18 16 18 25 26 24 22 18 19 18 17 18 15 15
3 5 5 4 3 3 2 6 10 11 8 9 12 14 15 16 16 16 14 10 8 11 14 16 19 21 22 23 25 26 27 25 25 22 20 19 16 17 22 23 22 21 21 20 19 18 18 18 17
2 4 5 6 7 7 3 7 9 13 11 9 7 10 14 18 19 18 16 13 10 9 11 15 18 20 20 22 24 23 24 20 19 22 20 20 17 18 19 23 23 23 22 20 19 17 17 16 17
3 3 2 5 8 8 7 7 12 12 6 5 11 15 19 21 20 19 17 14 12 10 9 11 15 17 18 20 21 21 22 22 21 20 20 19 18 16 20 22 23 23 22 21 20 16 18 16 17
2 2 3 4 6 7 8 8 8 9 13 16 16 19 22 21 19 18 16 15 13 11 9 8 11 14 15 17 18 16 20 21 21 19 21 21 20 19 19 21 22 23 22 22 20 17 17 17 17
5 4 6 5 6 7 10 9 6 12 14 14 16 19 20 18 17 16 15 14 13 12 10 8 8 10 11 13 15 17 18 18 19 19 21 20 20 20 21 21 21 22 22 22 21 20 19 19 18
5 6 7 6 9 9 12 13 8 10 9 11 17 18 15 14 14 14 15 15 14 14 12 10 8 8 9 11 13 15 16 17 18 20 20 20 20 20 20 20 21 22 22 22 22 22 20 20 20
Wind_Direction
175 217 233 227 227 242 275 301 205 169 177 158 159 191 216 225 255 350 125 155 151 155 159 160 157 152 146 139 129 118 107 98 90 84 78 74 69 64 62 58 56 54 52 51 49 47 45 44 44
191 231 219 225 244 254 269 201 210 193 146 148 177 205 224 232 210 124 152 162 159 158 161 160 157 156 152 146 138 128 117 107 98 90 84 79 73 67 64 60 57 55 53 51 49 46 43 42 42
201 259 221 221 243 264 291 212 203 141 153 177 188 217 243 225 173 172 164 163 164 162 163 159 161 160 157 152 145 137 127 117 107 98 90 85 79 71 67 63 59 56 53 51 48 45 41 40 39
237 209 219 238 246 264 295 312 169 165 177 206 208 212 219 208 169 161 156 163 167 166 166 164 166 165 162 158 153 145 138 128 118 108 99 92 85 77 71 66 61 57 53 50 47 45 41 38 37
242 233 229 240 253 259 243 210 187 198 193 198 208 231 215 164 150 154 162 168 171 169 170 169 170 170 168 166 161 155 149 139 129 119 109 101 93 84 77 73 65 59 55 50 47 44 39 36 34
220 241 246 253 260 262 231 198 192 220 214 193 209 235 218 148 163 164 167 173 175 173 174 175 176 177 175 173 169 165 159 151 141 130 121 111 102 94 84 79 72 64 57 51 48 44 39 33 31
257 255 259 268 274 273 247 179 209 224 218 207 204 223 185 174 171 166 171 176 180 180 181 182 182 181 181 180 178 174 168 161 152 142 132 123 114 106 93 86 81 70 60 55 50 45 41 32 29
284 263 263 265 271 279 225 181 227 228 228 196 201 230 215 167 163 166 172 180 185 188 190 189 188 186 185 185 184 181 176 171 163 153 144 135 126 119 110 104 91 80 65 57 51 46 41 33 28
240 256 263 267 271 281 195 200 211 221 222 206 218 238 79 139 155 165 175 186 193 197 197 196 193 190 189 187 184 185 183 180 173 166 158 154 155 150 144 116 105 92 73 60 52 45 36 29 27
223 257 266 277 271 279 217 223 212 208 224 225 224 213 157 159 170 178 186 192 197 199 199 198 198 194 192 189 188 190 188 184 185 179 173 175 173 171 163 139 129 115 98 80 56 43 27 12 9
230 258 275 259 260 266 242 231 221 226 238 233 229 210 183 180 187 194 199 201 201 200 198 200 200 198 196 193 192 191 190 187 190 190 186 184 181 180 184 181 172 170 171 170 130 347 13 8 4
244 253 262 267 246 244 245 241 232 231 248 259 239 211 182 190 197 202 205 206 203 202 202 201 200 201 201 200 198 198 195 194 194 195 194 190 190 193 194 198 195 196 198 201 218 279 337 338 340
242 264 254 254 250 249 255 247 256 253 251 244 228 196 196 201 206 210 211 210 206 206 205 203 202 202 202 204 204 204 204 201 200 197 198 198 196 198 198 200 200 204 204 208 216 236 274 297 310
268 264 263 258 247 246 256 262 253 262 252 236 227 220 214 212 212 211 211 211 209 208 207 204 203 204 203 205 207 207 207 205 204 202 201 201 203 202 201 203 204 206 207 211 219 233 258 277 288
255 278 268 236 233 249 270 267 241 254 238 235 231 230 226 223 217 216 213 212 211 209 207 205 204 205 206 208 210 210 209 206 206 205 204 203 205 206 204 206 206 207 206 209 218 225 244 261 272
245 262 277 207 208 220 253 276 276 261 236 246 244 237 231 227 223 222 218 215 213 210 207 206 203 205 207 209 210 211 211 209 210 208 206 205 206 207 207 209 210 206 205 210 217 226 239 248 260
239 284 298 299 209 223 242 278 286 274 249 256 256 248 239 234 228 224 220 216 213 210 206 205 204 205 207 208 210 213 213 213 213 210 208 207 206 207 209 212 211 205 207 211 215 222 232 244 253
297 300 295 297 273 239 263 276 285 283 260 262 264 259 250 242 236 226 219 216 212 210 207 206 205 207 206 207 211 214 217 218 217 214 212 208 207 207 209 213 212 207 209 212 213 220 223 238 250
285 282 288 294 298 262 275 283 288 292 284 270 266 265 259 253 250 236 220 213 210 209 207 206 205 205 203 203 207 210 215 216 217 218 216 212 210 207 209 211 211 209 213 214 215 219 226 229 232
258 278 288 299 277 263 291 289 289 291 289 285 283 281 276 270 260 240 224 213 210 209 208 208 208 205 204 206 207 211 216 220 220 219 220 216 213 210 209 211 211 209 213 216 215 215 222 226 218
264 266 289 300 311 260 302 297 294 312 319 310 305 299 296 285 274 254 230 221 215 213 211 210 209 208 207 206 206 208 215 223 220 219 219 218 215 213 211 212 212 211 211 214 213 211 216 223 216
282 284 272 285 303 305 334 305 303 327 339 15 17 12 0 340 306 276 249 231 223 221 217 215 213 211 209 205 207 206 209 216 219 218 218 217 215 215 213 212 212 212 211 215 213 212 215 220 226
279 343 270 277 283 288 264 264 291 317 355 9 12 15 14 7 351 321 278 249 236 226 220 219 217 215 211 209 211 213 221 226 226 221 221 219 215 216 215 213 212 212 212 214 212 210 212 215 222
256 259 229 218 242 259 230 261 291 322 347 346 356 7 11 7 1 350 325 277 248 228 219 217 218 219 214 212 214 217 223 225 225 223 221 219 217 215 215 213 213 212 211 211 211 210 212 214 219
239 291 294 276 261 264 146 256 261 282 312 315 323 342 356 360 358 351 342 318 274 237 222 217 217 220 216 215 217 220 225 226 228 227 224 220 219 217 215 211 212 212 211 209 208 209 213 215 218
246 271 300 302 295 299 246 249 265 288 303 298 307 334 351 353 349 342 337 326 304 267 236 224 222 224 218 217 221 224 226 228 232 230 227 224 223 221 216 212 213 212 209 207 206 209 212 215 218
236 226 309 282 280 277 261 263 286 281 284 333 350 355 352 346 342 339 336 333 324 305 270 240 232 230 225 222 223 225 226 227 231 232 231 230 228 224 218 214 214 212 209 206 204 209 210 212 217
284 222 205 249 281 283 272 263 259 288 312 332 345 348 344 342 342 341 340 338 334 327 308 275 248 241 235 230 228 229 228 229 231 232 232 230 229 225 222 217 214 212 209 206 205 208 211 212 216
184 197 225 248 259 276 288 274 251 278 310 331 338 339 341 345 345 345 345 345 344 343 335 315 283 261 249 239 236 235 235 234 233 234 235 234 232 227 224 221 216 214 210 206 205 207 207 212 217
238 241 222 252 267 254 278 282 273 279 311 327 332 338 345 349 350 351 351 352 354 351 346 336 313 284 265 252 244 241 239 237 236 237 237 235 233 229 225 222 218 216 213 208 206 207 208 211 217
Height
1561 1563 1564 1566 1565 1562 1564 1564 1566 1571 1573 1576 1577 1578 1576 1575 1575 1579 1578 1576 1578 1581 1584 1586 1588 1589 1590 1591 1591 1591 1591 1591 1590 1589 1588 1587 1586 1585 1584 1582 1581 1579 1578 1576 1574 1572 1570 1568 1566
1562 1564 1566 1566 1563 1566 1564 1563 1567 1569 1573 1576 1577 1578 1577 1575 1575 1575 1573 1574 1577 1580 1583 1585 1586 1588 1589 1590 1590 1591 1591 1590 1589 1589 1588 1587 1585 1584 1583 1582 1580 1579 1577 1576 1574 1572 1570 1568 1566
1563 1564 1567 1563 1562 1564 1563 1563 1565 1572 1574 1576 1576 1576 1575 1574 1572 1572 1572 1573 1575 1578 1581 1583 1585 1586 1588 1589 1589 1590 1590 1589 1588 1588 1587 1586 1585 1584 1583 1581 1580 1578 1577 1575 1573 1571 1570 1568 1566
1564 1566 1566 1561 1562 1560 1561 1564 1568 1572 1575 1575 1575 1574 1572 1570 1569 1570 1570 1571 1574 1577 1580 1582 1583 1585 1586 1587 1588 1588 1588 1588 1588 1587 1586 1585 1584 1583 1582 1581 1579 1578 1576 1575 1573 1571 1569 1568 1566
1565 1565 1562 1562 1560 1561 1564 1567 1569 1569 1570 1571 1573 1569 1569 1567 1566 1567 1568 1570 1573 1575 1578 1580 1581 1583 1585 1586 1587 1587 1587 1587 1587 1586 1585 1584 1583 1582 1581 1580 1578 1577 1576 1574 1572 1571 1569 1567 1566
1566 1563 1562 1562 1558 1559 1563 1566 1568 1567 1567 1569 1570 1568 1566 1563 1564 1565 1567 1569 1571 1573 1576 1578 1579 1581 1583 1584 1585 1585 1585 1585 1585 1585 1584 1583 1582 1581 1580 1579 1577 1576 1575 1573 1571 1570 1569 1567 1566
1566 1562 1561 1559 1558 1557 1561 1565 1565 1563 1564 1566 1566 1565 1562 1560 1561 1562 1564 1567 1569 1571 1573 1575 1577 1579 1580 1581 1582 1583 1583 1583 1583 1583 1583 1582 1581 1580 1579 1577 1576 1575 1573 1572 1571 1569 1568 1566 1565
1564 1563 1559 1558 1558 1555 1559 1562 1562 1562 1562 1562 1563 1561 1559 1557 1558 1560 1562 1564 1566 1568 1570 1572 1575 1576 1578 1579 1580 1580 1581 1581 1581 1581 1581 1580 1579 1578 1577 1576 1575 1574 1572 1571 1570 1568 1567 1566 1564
1563 1563 1559 1556 1556 1553 1558 1560 1560 1559 1559 1558 1557 1557 1555 1554 1555 1557 1558 1560 1562 1563 1565 1568 1570 1572 1574 1576 1577 1578 1578 1578 1579 1578 1578 1578 1577 1576 1575 1574 1573 1572 1571 1570 1568 1567 1566 1564 1563
1563 1560 1554 1554 1554 1554 1557 1557 1556 1557 1555 1554 1553 1551 1551 1551 1552 1553 1554 1555 1556 1558 1560 1563 1565 1568 1570 1572 1573 1574 1575 1575 1575 1575 1575 1575 1574 1573 1573 1572 1571 1570 1569 1568 1567 1566 1564 1563 1561
1560 1556 1554 1556 1556 1556 1555 1555 1554 1552 1547 1546 1545 1545 1545 1546 1547 1548 1549 1551 1552 1554 1556 1558 1560 1563 1565 1567 1568 1570 1570 1571 1572 1572 1572 1571 1571 1571 1570 1569 1568 1568 1567 1565 1564 1563 1562 1561 1559
1559 1556 1557 1555 1555 1555 1553 1552 1550 1546 1540 1541 1541 1541 1540 1541 1541 1542 1544 1546 1548 1549 1551 1553 1555 1557 1559 1562 1563 1565 1565 1566 1567 1568 1568 1568 1568 1567 1567 1566 1565 1565 1564 1563 1562 1561 1559 1558 1556
1558 1556 1556 1554 1554 1553 1551 1548 1545 1538 1536 1537 1536 1535 1535 1535 1536 1538 1540 1541 1542 1543 1545 1547 1549 1551 1553 1556 1557 1559 1560 1561 1562 1563 1563 1564 1564 1563 1563 1563 1562 1561 1560 1559 1558 1557 1556 1555 1553
1557 1556 1554 1552 1552 1551 1549 1544 1543 1529 1531 1531 1529 1528 1528 1529 1530 1531 1532 1533 1535 1536 1539 1541 1543 1545 1547 1549 1551 1553 1555 1556 1557 1557 1558 1559 1559 1559 1559 1558 1558 1557 1556 1555 1554 1553 1552 1551 1549
1556 1554 1549 1549 1549 1548 1548 1537 1531 1524 1526 1524 1523 1521 1521 1521 1522 1522 1523 1526 1528 1530 1533 1534 1537 1539 1541 1543 1545 1547 1549 1550 1551 1552 1553 1553 1553 1553 1553 1553 1553 1552 1551 1551 1550 1549 1548 1546 1545
1554 1549 1543 1543 1546 1546 1548 1528 1519 1521 1521 1518 1516 1515 1513 1512 1512 1514 1516 1518 1521 1523 1525 1528 1530 1532 1534 1536 1538 1540 1542 1543 1545 1545 1546 1546 1547 1547 1547 1547 1547 1547 1546 1545 1545 1544 1542 1541 1540
1546 1543 1540 1539 1543 1544 1542 1525 1513 1516 1515 1511 1508 1507 1506 1504 1504 1505 1507 1510 1512 1515 1518 1520 1522 1525 1527 1530 1532 1533 1535 1536 1537 1538 1538 1539 1540 1541 1541 1541 1541 1540 1540 1539 1539 1538 1537 1535 1534
1545 1542 1539 1537 1537 1542 1536 1521 1506 1507 1508 1503 1500 1499 1498 1496 1495 1498 1500 1502 1505 1508 1510 1512 1515 1517 1520 1522 1524 1525 1526 1527 1528 1528 1529 1531 1532 1533 1534 1534 1534 1533 1533 1533 1532 1532 1530 1529 1527
1547 1546 1540 1534 1535 1540 1529 1515 1500 1495 1497 1494 1492 1491 1490 1488 1490 1493 1493 1494 1496 1499 1501 1503 1506 1509 1511 1511 1512 1513 1514 1516 1518 1519 1520 1522 1523 1525 1525 1526 1526 1526 1526 1526 1526 1525 1524 1522 1520
1548 1545 1537 1531 1537 1537 1525 1512 1495 1490 1490 1489 1487 1485 1484 1483 1484 1485 1485 1486 1488 1490 1493 1495 1497 1500 1501 1502 1504 1506 1508 1508 1509 1510 1511 1513 1514 1515 1516 1517 1517 1518 1518 1518 1518 1518 1517 1516 1514
1543 1542 1535 1535 1533 1532 1531 1506 1488 1484 1488 1487 1485 1482 1480 1479 1478 1479 1479 1479 1481 1483 1485 1487 1489 1492 1493 1495 1497 1498 1499 1498 1499 1499 1500 1502 1503 1504 1505 1507 1508 1508 1509 1509 1509 1509 1509 1509 1508
1539 1538 1540 1540 1537 1527 1532 1522 1491 1484 1484 1482 1482 1481 1479 1477 1475 1475 1475 1474 1475 1477 1480 1481 1483 1485 1486 1488 1487 1487 1487 1486 1487 1490 1491 1492 1493 1494 1495 1497 1498 1499 1499 1500 1500 1500 1501 1501 1500
1538 1541 1540 1539 1536 1533 1527 1527 1498 1485 1482 1481 1481 1481 1479 1477 1475 1473 1472 1471 1471 1472 1473 1475 1476 1477 1478 1478 1479 1479 1478 1479 1481 1481 1481 1481 1481 1483 1484 1485 1487 1488 1489 1490 1491 1491 1491 1492 1492
1542 1541 1540 1539 1534 1530 1524 1524 1502 1482 1484 1484 1482 1481 1480 1478 1475 1473 1471 1469 1467 1467 1467 1467 1468 1468 1469 1469 1469 1469 1469 1470 1471 1471 1470 1470 1470 1470 1471 1473 1474 1476 1477 1479 1481 1481 1482 1482 1483
1541 1536 1528 1524 1523 1519 1527 1526 1503 1482 1484 1486 1485 1483 1481 1478 1475 1472 1469 1466 1463 1462 1460 1460 1460 1460 1460 1460 1460 1460 1460 1461 1461 1461 1460 1460 1459 1458 1458 1460 1462 1463 1465 1468 1470 1471 1472 1473 1473
1539 1537 1535 1535 1525 1517 1525 1519 1492 1481 1483 1485 1485 1483 1481 1478 1474 1470 1466 1462 1459 1456 1454 1453 1452 1451 1451 1451 1451 1451 1451 1451 1451 1451 1450 1449 1448 1447 1448 1449 1450 1452 1454 1457 1459 1460 1462 1463 1463
1538 1537 1537 1535 1528 1531 1515 1506 1494 1480 1479 1480 1481 1480 1479 1476 1472 1468 1463 1459 1455 1452 1449 1447 1446 1444 1444 1443 1443 1442 1442 1442 1441 1441 1440 1439 1437 1437 1437 1437 1438 1440 1442 1445 1447 1448 1451 1452 1453
1540 1537 1539 1535 1532 1524 1509 1506 1493 1479 1475 1477 1479 1479 1477 1474 1469 1464 1460 1456 1452 1449 1446 1443 1441 1439 1438 1436 1435 1434 1434 1433 1432 1431 1430 1428 1427 1427 1426 1425 1425 1427 1429 1432 1435 1437 1440 1442 1443
1540 1540 1535 1530 1529 1525 1512 1497 1484 1480 1478 1481 1481 1479 1477 1473 1468 1463 1459 1455 1451 1447 1444 1440 1438 1435 1433 1431 1429 1428 1426 1425 1423 1421 1420 1419 1417 1416 1415 1414 1414 1415 1417 1420 1423 1425 1429 1431 1433
1533 1530 1530 1529 1520 1522 1514 1495 1478 1479 1481 1483 1481 1479 1476 1473 1468 1464 1459 1455 1451 1447 1443 1440 1436 1433 1430 1427 1424 1422 1420 1417 1415 1413 1411 1409 1407 1405 1404 1404 1403 1404 1405 1408 1411 1414 1417 1420 1422